This is the latest recevied weather packets stored in our database for station/object N4ASP-13. If no packets are shown the sender has not sent any weather packets the latest 10 day(s).
| Time | Temp. | Humidity | Pressure | Rain* | Wind** | Luminosity | Snow |
|---|---|---|---|---|---|---|---|
| 1777646034 | 12.22° C | 61% | 1015.6 hPa | 0 mm | - | 872 W/m² | - |
| 1777645974 | 12.22° C | 62% | 1015.6 hPa | 0 mm | - | 867 W/m² | - |
| 1777645914 | 11.67° C | 61% | 1015.6 hPa | 0 mm | - | 564 W/m² | - |
| 1777645854 | 11.67° C | 63% | 1015.7 hPa | 0 mm | - | 564 W/m² | - |
| 1777645795 | 11.67° C | 64% | 1015.6 hPa | 0 mm | - | 654 W/m² | - |
| 1777645734 | 11.67° C | 62% | 1015.7 hPa | 0 mm | - | 654 W/m² | - |
| 1777645675 | 11.67° C | 63% | 1015.6 hPa | 0 mm | - | 619 W/m² | - |
| 1777645611 | 11.67° C | 63% | 1015.7 hPa | 0 mm | - | 773 W/m² | - |
| 1777645549 | 11.67° C | 63% | 1015.6 hPa | 0 mm | - | 773 W/m² | - |
| 1777645491 | 11.67° C | 63% | 1015.6 hPa | 0 mm | - | 773 W/m² | - |
| 1777645430 | 11.67° C | 66% | 1015.6 hPa | 0 mm | - | 939 W/m² | - |
| 1777645370 | 11.67° C | 64% | 1015.6 hPa | 0 mm | - | 939 W/m² | - |
| 1777645309 | 11.67° C | 64% | 1015.7 hPa | 0 mm | - | 939 W/m² | - |
| 1777645251 | 11.11° C | 66% | 1015.6 hPa | 0 mm | - | 939 W/m² | - |
| 1777645190 | 11.11° C | 65% | 1015.6 hPa | 0 mm | - | 939 W/m² | - |
| 1777645130 | 11.11° C | 64% | 1015.6 hPa | 0 mm | - | 860 W/m² | - |
| 1777645069 | 11.11° C | 65% | 1015.6 hPa | 0 mm | - | 638 W/m² | - |
| 1777645011 | 11.11° C | 64% | 1015.6 hPa | 0 mm | - | 638 W/m² | - |
| 1777644950 | 11.11° C | 63% | 1015.5 hPa | 0 mm | - | 540 W/m² | - |
| 1777644889 | 11.11° C | 63% | 1015.5 hPa | 0 mm | - | 540 W/m² | - |
| 1777644829 | 11.11° C | 63% | 1015.5 hPa | 0 mm | - | 540 W/m² | - |
| 1777644771 | 11.11° C | 65% | 1015.6 hPa | 0 mm | - | 953 W/m² | - |
| 1777644709 | 11.11° C | 64% | 1015.6 hPa | 0 mm | - | 953 W/m² | - |
| 1777644649 | 10.56° C | 65% | 1015.6 hPa | 0 mm | - | 953 W/m² | - |
| 1777644590 | 10.56° C | 65% | 1015.5 hPa | 0 mm | - | 896 W/m² | - |
* Rain latest hour (hover to see other rain measurements)
** Current wind speed in m/s (hover to see current wind gust speed)